Location: ??????
(38.0131°N, 23.7723°E)
Time: 02:35:01
(UTC+00:00)

Okean 1-7 Rocket - Pass Details

Date: 17 October 2021
Orbit: 617 x 648 km, 82.5° (Epoch: 04 December)

Event Time Altitude Azimuth Distance (km) Brightness Sun altitude
Rises 17:01:24 0° 360° (N) 2,899 7.0 -15.9°
Reaches altitude 10° 17:03:44 10° 7° (N) 1,992 6.1 -16.4°
Maximum altitude 17:07:55 42° 79° (E) 886 3.9 -17.2°
Enters shadow 17:10:04 25° 135° (SE) 1,274 4.8 -17.6°
